Location: Girdwood
(60.9430°N, 149.1660°W)
Time: 17:34:18
(UTC-09:00)

Amateur Radio Satellites - All Passes

Search period start: 29 January 2015 17:04
Search period end: 30 January 2015 17:04
Location: Girdwood, 60.9430°N, 149.1660°W

Satellite Date Start Highest point End Downlink Frequencies (MHz)
Time Altitude Azimuth
M-CUBED/EXP-1 PRIME 29 Jan 17:05:27 17:08:46 59° 111° (ESE) 17:12:04 437.505
JAS-2 29 Jan 17:09:13 17:14:21 49° 260° (W) 17:19:25 435.910
AO-7 29 Jan 17:14:04 17:21:43 36° 268° (W) 17:29:16 29.400- 29.500
CUSAT 1 29 Jan 17:25:44 17:31:09 24° 283° (WNW) 17:35:33 437.405
Cubesat XI-IV 29 Jan 17:26:12 17:31:28 65° 65° (ENE) 17:36:49 437.490
SO-50 29 Jan 17:38:05 17:42:59 87° 31° (NNE) 17:47:57 436.795
AUBIESAT-1 29 Jan 17:38:18 17:41:39 76° 299° (WNW) 17:44:59 437.475
CUTE-I 29 Jan 17:45:59 17:51:20 82° 70° (ENE) 17:56:45 437.470
O/OREOS (USA 219) 29 Jan 17:55:00 17:59:28 64° 122° (ESE) 18:04:02 437.305
RS-15 29 Jan 17:55:46 17:57:52 10° 274° (W) 17:59:09 29.354- 29.394
GOMX 1 29 Jan 17:56:28 17:59:31 16° 35° (NE) 18:02:43 467.674
SWISSCUBE 29 Jan 18:01:13 18:03:12 12° 327° (NNW) 18:05:06 437.505
BRITE-PL 29 Jan 18:02:41 18:06:27 20° 40° (NE) 18:10:23 437.365/2234.400
DOVE 4 29 Jan 18:06:37 18:09:22 15° 35° (NE) 18:12:13 437.250
CUTE 1.7 + AOD 2 29 Jan 18:09:23 18:10:56 12° 40° (NE) 18:12:35 437.475
YUBILEINY 29 Jan 18:10:43 18:15:57 18° 64° (ENE) 18:21:29 435.215
BEESAT 29 Jan 18:17:18 18:18:43 11° 330° (NNW) 18:20:02 436.000
STARS 29 Jan 18:20:48 18:24:10 21° 312° (NW) 18:27:29 437.465
ITUPSAT 1 29 Jan 18:21:37 18:22:53 11° 331° (NNW) 18:24:03 437.325
KKS-1 29 Jan 18:28:39 18:31:30 16° 317° (NW) 18:34:14 437.445
MOZHAYETS 4 29 Jan 18:33:35 18:38:12 81° 290° (WNW) 18:42:47
HO-68 29 Jan 18:37:10 18:43:37 39° 45° (NE) 18:50:07 435.675
SEEDS 29 Jan 18:38:07 18:40:33 15° 45° (NE) 18:43:05 437.485
PRISM 29 Jan 18:40:16 18:43:35 23° 91° (E) 18:46:57 437.425
M-CUBED/EXP-1 PRIME 29 Jan 18:40:50 18:43:36 24° 313° (NW) 18:46:19 437.505
DANDE 29 Jan 18:43:59 18:46:30 12° 298° (WNW) 18:48:35 436.750
CUBESAT XI-V 29 Jan 18:50:30 18:54:24 26° 89° (E) 18:58:21 437.345
CUBEBUG 2 29 Jan 18:58:45 19:00:48 13° 37° (NE) 19:02:58 437.445
JAS-2 29 Jan 18:59:15 19:01:02 11° 285° (WNW) 19:02:35 435.910
COMPASS 1 29 Jan 19:03:11 19:06:07 19° 49° (NE) 19:09:07 437.405
ZACube-1 29 Jan 19:04:48 19:06:01 11° 35° (NE) 19:07:21 437.345
Cubesat XI-IV 29 Jan 19:07:07 19:12:00 34° 267° (W) 19:16:52 437.490
DX 1 29 Jan 19:09:35 19:11:26 13° 37° (NE) 19:13:22 434.975-435.025
STRAND 1 29 Jan 19:10:09 19:14:32 27° 90° (E) 19:18:57 437.568
AUBIESAT-1 29 Jan 19:13:59 19:16:10 16° 319° (NW) 19:18:17 437.475
AO-7 29 Jan 19:15:46 19:17:40 11° 295° (WNW) 19:19:05 29.400- 29.500
FUNcube-1 29 Jan 19:15:50 19:17:38 12° 37° (NE) 19:19:31 145.935
CANX-2 29 Jan 19:18:14 19:21:56 29° 57° (ENE) 19:25:39 2200.000
SO-50 29 Jan 19:18:48 19:23:17 36° 230° (SW) 19:27:46 436.795
DELFI C3 29 Jan 19:22:05 19:24:05 14° 44° (NE) 19:26:11 145.870
CINEMA 3 29 Jan 19:24:53 19:28:44 23° 48° (NE) 19:32:40 145.822/145.860
CUTE-I 29 Jan 19:27:35 19:32:05 27° 271° (W) 19:36:33 437.470
AAUSAT CUBESAT 2 29 Jan 19:28:26 19:31:49 24° 54° (NE) 19:35:15 437.432
GOMX 1 29 Jan 19:31:30 19:36:26 40° 58° (ENE) 19:41:34 467.674
O/OREOS (USA 219) 29 Jan 19:34:54 19:39:12 39° 326° (NW) 19:43:31 437.305
UWE-3 29 Jan 19:36:14 19:39:13 17° 44° (NE) 19:42:17 435.000/436.395/437.385
AISAT 29 Jan 19:37:28 19:38:53 11° 34° (NE) 19:40:25 437.250
BRITE-PL 29 Jan 19:38:45 19:43:56 53° 62° (ENE) 19:49:27 437.365/2234.400
DOVE 4 29 Jan 19:41:08 19:45:54 37° 57° (ENE) 19:50:49 437.250
CUTE 1.7 + AOD 2 29 Jan 19:41:56 19:45:54 38° 61° (ENE) 19:49:55 437.475
Oscar 11 29 Jan 19:46:16 19:49:38 22° 51° (NE) 19:53:02 145.826/435.025
YUBILEINY 29 Jan 20:02:35 20:10:53 53° 90° (E) 20:19:18 435.215
VELOX 1 29 Jan 20:04:01 20:06:29 15° 41° (NE) 20:09:02 145.980
50 SAT 29 Jan 20:08:34 20:10:20 13° 42° (NE) 20:12:10 437.505
MOZHAYETS 4 29 Jan 20:11:24 20:14:55 22° 311° (NW) 20:18:22
SEEDS 29 Jan 20:11:29 20:15:39 55° 66° (ENE) 20:19:50 437.485
CUBEBUG 1 29 Jan 20:12:36 20:13:21 10° 34° (NE) 20:14:12 437.445
PRISM 29 Jan 20:15:25 20:19:33 70° 292° (WNW) 20:23:42 437.425
UKube-1 29 Jan 20:21:32 20:25:14 28° 54° (NE) 20:29:00 .
HO-68 29 Jan 20:23:43 20:30:54 85° 248° (WSW) 20:38:08 435.675
CUBESAT XI-V 29 Jan 20:27:39 20:32:21 73° 292° (WNW) 20:37:03 437.345
AIST 1 29 Jan 20:30:42 20:32:38 13° 43° (NE) 20:34:39
CUBEBUG 2 29 Jan 20:32:03 20:36:25 36° 58° (ENE) 20:40:49 437.445
HUMSAT D 29 Jan 20:36:03 20:39:22 22° 51° (NE) 20:42:42 437.325/437.525
COMPASS 1 29 Jan 20:37:04 20:41:18 75° 70° (ENE) 20:45:32 437.405
ZACube-1 29 Jan 20:37:10 20:41:14 31° 57° (ENE) 20:45:19 437.345
DX 1 29 Jan 20:42:39 20:46:42 38° 59° (ENE) 20:50:48 434.975-435.025
FUNcube-1 29 Jan 20:48:42 20:52:56 36° 59° (ENE) 20:57:09 145.935
STRAND 1 29 Jan 20:49:07 20:54:18 77° 293° (WNW) 20:59:28 437.568
CANX-2 29 Jan 20:53:23 20:57:40 63° 258° (WSW) 21:01:57 2200.000
DELFI C3 29 Jan 20:54:37 20:58:34 49° 65° (ENE) 21:02:32 145.870
CINEMA 3 29 Jan 21:00:18 21:05:20 75° 68° (ENE) 21:10:25 145.822/145.860
AAUSAT CUBESAT 2 29 Jan 21:02:55 21:07:09 77° 253° (WSW) 21:11:23 437.432
GOMX 1 29 Jan 21:09:11 21:14:25 60° 259° (W) 21:19:53 467.674
UWE-3 29 Jan 21:10:23 21:15:00 56° 65° (ENE) 21:19:37 435.000/436.395/437.385
AISAT 29 Jan 21:10:24 21:14:24 33° 56° (NE) 21:18:28 437.250
ESTCUBE 1 29 Jan 21:16:03 21:19:31 23° 50° (NE) 21:23:05 437.505/2401.250
O/OREOS (USA 219) 29 Jan 21:16:09 21:19:45 22° 350° (N) 21:23:21 437.305
BRITE-PL 29 Jan 21:17:32 21:22:37 44° 265° (W) 21:28:00 437.365/2234.400
CUTE 1.7 + AOD 2 29 Jan 21:17:43 21:21:51 44° 262° (W) 21:25:59 437.475
DOVE 4 29 Jan 21:18:17 21:23:28 63° 258° (WSW) 21:28:50 437.250
Oscar 11 29 Jan 21:21:00 21:25:22 90° 74° (ENE) 21:29:45 145.826/435.025
SPROUT 29 Jan 21:30:01 21:31:51 13° 39° (NE) 21:33:46 437.525
VELOX 1 29 Jan 21:37:56 21:42:12 47° 62° (ENE) 21:46:33 145.980
50 SAT 29 Jan 21:40:40 21:44:35 43° 63° (ENE) 21:48:33 437.505
CUBEBUG 1 29 Jan 21:44:45 21:48:34 30° 56° (NE) 21:52:27 437.445
SEEDS 29 Jan 21:47:59 21:51:46 30° 267° (W) 21:55:31 437.485
PRISM 29 Jan 21:51:40 21:54:31 18° 313° (NW) 21:57:18 437.425
UKube-1 29 Jan 21:56:48 22:01:09 69° 255° (WSW) 22:05:32 .
YUBILEINY 29 Jan 21:59:10 22:07:47 60° 296° (WNW) 22:16:27 435.215
TISAT 1 29 Jan 22:03:19 22:06:13 18° 47° (NE) 22:09:13 437.305
UNISAT 6 29 Jan 22:05:09 22:06:33 11° 77° (ENE) 22:08:07 437.425
CUBESAT XI-V 29 Jan 22:05:44 22:09:13 21° 312° (NW) 22:12:39 437.345
AIST 1 29 Jan 22:07:18 22:11:29 45° 66° (ENE) 22:15:43
CUBEBUG 2 29 Jan 22:08:17 22:13:01 56° 260° (W) 22:17:45 437.445
HUMSAT D 29 Jan 22:10:18 22:14:41 86° 72° (ENE) 22:19:03 437.325/437.525
ZACube-1 29 Jan 22:12:47 22:17:24 64° 257° (WSW) 22:22:00 437.345
HO-68 29 Jan 22:13:37 22:19:43 29° 273° (W) 22:25:44 435.675
COMPASS 1 29 Jan 22:14:11 22:17:31 22° 271° (W) 22:20:49 437.405
DX 1 29 Jan 22:18:43 22:22:57 46° 260° (W) 22:27:13 434.975-435.025
FUNcube-1 29 Jan 22:24:38 22:29:11 54° 260° (W) 22:33:43 145.935
STRAND 1 29 Jan 22:28:50 22:32:55 24° 314° (NW) 22:36:57 437.568
DELFI C3 29 Jan 22:30:21 22:34:01 31° 266° (W) 22:37:41 145.870
CANX-2 29 Jan 22:32:25 22:34:33 13° 279° (W) 22:36:34 2200.000
CINEMA 3 29 Jan 22:38:42 22:43:02 28° 271° (W) 22:47:22 145.822/145.860
ANTELSAT 29 Jan 22:39:56 22:43:16 20° 86° (E) 22:46:38 437.575/2403.000
AAUSAT CUBESAT 2 29 Jan 22:40:57 22:43:35 16° 276° (W) 22:46:07 437.432
AISAT 29 Jan 22:46:26 22:50:52 58° 257° (WSW) 22:55:22 437.250
TIGRISAT 29 Jan 22:47:09 22:50:41 22° 88° (E) 22:54:12 435.000
UWE-3 29 Jan 22:47:28 22:51:48 34° 266° (W) 22:56:05 435.000/436.395/437.385
SWISSCUBE 29 Jan 22:48:04 22:50:54 16° 40° (NE) 22:53:50 437.505
NANOSAT C BR1 29 Jan 22:49:13 22:51:52 16° 84° (E) 22:54:37 145.865
GOMX 1 29 Jan 22:50:27 22:53:47 16° 283° (WNW) 22:57:01 467.674
ESTCUBE 1 29 Jan 22:51:26 22:55:57 87° 71° (ENE) 23:00:29 437.505/2401.250
O/OREOS (USA 219) 29 Jan 22:56:52 23:00:35 23° 15° (NNE) 23:04:20 437.305
DOVE 4 29 Jan 22:59:00 23:02:23 17° 281° (WNW) 23:05:41 437.250
Oscar 11 29 Jan 22:59:02 23:02:13 19° 274° (W) 23:05:19 145.826/435.025
BRITE-PL 29 Jan 23:00:49 23:02:48 12° 289° (WNW) 23:04:35 437.365/2234.400
SPROUT 29 Jan 23:02:56 23:06:59 40° 61° (ENE) 23:11:06 437.525
BEESAT 29 Jan 23:03:16 23:06:25 18° 43° (NE) 23:09:40 436.000
QB50P2 29 Jan 23:03:39 23:06:53 20° 87° (E) 23:10:10 145.880/145.840
ITUPSAT 1 29 Jan 23:07:30 23:10:45 19° 43° (NE) 23:14:05 437.325
QB50P1 29 Jan 23:12:35 23:16:03 23° 89° (E) 23:19:34 145.935-145.965
VELOX 1 29 Jan 23:14:46 23:18:56 37° 263° (W) 23:23:09 145.980
50 SAT 29 Jan 23:15:56 23:19:49 37° 264° (W) 23:23:41 437.505
CUBEBUG 1 29 Jan 23:20:24 23:24:45 62° 257° (WSW) 23:29:10 437.445
BUGSAT 1 29 Jan 23:20:26 23:23:47 22° 89° (E) 23:27:12 437.445
POLYITAN 1 29 Jan 23:27:44 23:31:35 30° 93° (E) 23:35:25 437.675
UKube-1 29 Jan 23:35:41 23:38:12 15° 277° (W) 23:40:36 .
TISAT 1 29 Jan 23:37:11 23:41:26 69° 68° (ENE) 23:45:44 437.305
UNISAT 6 29 Jan 23:40:05 23:44:33 52° 100° (E) 23:48:54 437.425
AIST 1 29 Jan 23:45:09 23:49:08 35° 268° (W) 23:53:05
POPSAT HIP 1 29 Jan 23:47:15 23:51:22 40° 98° (E) 23:55:28 437.405
HUMSAT D 29 Jan 23:47:47 23:51:04 20° 273° (W) 23:54:19 437.325/437.525
CUBEBUG 2 29 Jan 23:48:25 23:50:50 13° 282° (WNW) 23:53:05 437.445
DUCHIFAT 1 29 Jan 23:49:26 23:53:34 41° 98° (E) 23:57:41 145.980
ZACube-1 29 Jan 23:52:04 23:54:44 15° 279° (W) 23:57:17 437.345
YUBILEINY 29 Jan 23:59:37 00:06:49 27° 325° (NW) 00:13:56 435.215
FUNcube-1 30 Jan 00:04:41 00:06:39 12° 282° (WNW) 00:08:27 145.935
STRAND 1 30 Jan 00:09:28 00:10:34 11° 337° (NNW) 00:11:36 437.568
GONETS M04 30 Jan 00:12:09 00:18:14 22° 69° (ENE) 00:24:33
ANTELSAT 30 Jan 00:16:11 00:20:46 88° 289° (WNW) 00:25:12 437.575/2403.000
SWISSCUBE 30 Jan 00:23:19 00:27:53 48° 61° (ENE) 00:32:31 437.505
TIGRISAT 30 Jan 00:23:28 00:28:03 80° 290° (WNW) 00:32:29 435.000
NANOSAT C BR1 30 Jan 00:24:12 00:28:33 76° 106° (ESE) 00:32:52 145.865
ISS 30 Jan 00:24:34 00:26:16 14° 163° (SSE) 00:28:00 145.825
AISAT 30 Jan 00:26:25 00:28:34 13° 280° (W) 00:30:34 437.250
ESTCUBE 1 30 Jan 00:30:04 00:33:29 21° 273° (W) 00:36:51 437.505/2401.250
O/OREOS (USA 219) 30 Jan 00:36:33 00:41:01 47° 39° (NE) 00:45:30 437.305
BEESAT 30 Jan 00:38:50 00:43:31 58° 64° (ENE) 00:48:14 436.000
SPROUT 30 Jan 00:38:57 00:43:07 43° 262° (W) 00:47:19 437.525
QB50P2 30 Jan 00:39:02 00:43:24 84° 289° (WNW) 00:47:44 145.880/145.840
STARS 30 Jan 00:39:51 00:42:55 19° 46° (NE) 00:46:04 437.465
ITUPSAT 1 30 Jan 00:43:13 00:47:56 61° 64° (ENE) 00:52:40 437.325
KKS-1 30 Jan 00:47:17 00:50:56 25° 51° (NE) 00:54:39 437.445
QB50P1 30 Jan 00:48:06 00:52:27 73° 290° (WNW) 00:56:45 145.935-145.965
BUGSAT 1 30 Jan 00:55:30 00:59:48 77° 290° (WNW) 01:04:05 437.445
M-CUBED/EXP-1 PRIME 30 Jan 00:55:43 00:58:21 19° 44° (NE) 01:00:56 437.505
CUBEBUG 1 30 Jan 00:59:53 01:02:07 13° 279° (W) 01:04:14 437.445
POLYITAN 1 30 Jan 01:03:32 01:07:49 57° 294° (WNW) 01:12:03 437.675
TISAT 1 30 Jan 01:14:10 01:17:43 24° 270° (W) 01:21:14 437.305
UNISAT 6 30 Jan 01:17:05 01:21:17 36° 302° (WNW) 01:25:19 437.425
POPSAT HIP 1 30 Jan 01:23:14 01:27:20 42° 299° (WNW) 01:31:26 437.405
Oscar 19 30 Jan 01:25:14 01:29:03 21° 85° (E) 01:32:58 437.125/150
DUCHIFAT 1 30 Jan 01:25:24 01:29:29 41° 299° (WNW) 01:33:32 145.980
AUBIESAT-1 30 Jan 01:27:34 01:30:42 28° 50° (NE) 01:33:43 437.475
ITAMSAT 1 30 Jan 01:43:57 01:46:25 14° 78° (ENE) 01:49:06 435.822/435.867
ANTELSAT 30 Jan 01:53:30 01:57:06 23° 310° (NW) 02:00:34 437.575/2403.000
ISS 30 Jan 01:59:41 02:01:54 17° 183° (S) 02:04:06 145.825
NANOSAT C BR1 30 Jan 02:00:30 02:04:06 25° 306° (NW) 02:07:38 145.865
TIGRISAT 30 Jan 02:00:48 02:04:15 21° 312° (NW) 02:07:36 435.000
SWISSCUBE 30 Jan 02:01:25 02:05:55 40° 263° (W) 02:10:26 437.505
YUBILEINY 30 Jan 02:01:49 02:07:29 18° 357° (N) 02:13:09 435.215
GONETS M04 30 Jan 02:04:59 02:13:33 64° 94° (E) 02:22:09
STARS 30 Jan 02:14:19 02:18:46 66° 67° (ENE) 02:23:14 437.465
QB50P2 30 Jan 02:15:32 02:18:50 21° 310° (NW) 02:22:04 145.880/145.840
O/OREOS (USA 219) 30 Jan 02:16:06 02:20:32 49° 242° (WSW) 02:24:59 437.305
BEESAT 30 Jan 02:17:20 02:21:40 33° 266° (W) 02:26:01 436.000
ITUPSAT 1 30 Jan 02:21:53 02:26:10 32° 266° (W) 02:30:27 437.325
KKS-1 30 Jan 02:22:40 02:27:11 84° 251° (WSW) 02:31:45 437.445
QB50P1 30 Jan 02:24:39 02:27:46 19° 312° (NW) 02:30:48 145.935-145.965
M-CUBED/EXP-1 PRIME 30 Jan 02:29:15 02:33:02 86° 64° (ENE) 02:36:34 437.505
BUGSAT 1 30 Jan 02:31:38 02:34:46 20° 311° (NW) 02:37:49 437.445
MOZHAYETS 4 30 Jan 02:33:24 02:36:29 18° 46° (NE) 02:39:37
BEESAT 2 30 Jan 02:33:55 02:35:02 11° 114° (ESE) 02:36:18 435.950
POLYITAN 1 30 Jan 02:40:19 02:43:02 16° 316° (NW) 02:45:40 437.675
Gurwin Techsat 1B 30 Jan 02:45:10 02:49:35 26° 89° (E) 02:54:04 435.225
BEESAT 3 30 Jan 02:45:44 02:48:01 15° 118° (ESE) 02:50:23 437.485
UNISAT 6 30 Jan 02:55:08 02:56:59 12° 324° (NW) 02:58:42 437.425
DANDE 30 Jan 02:56:56 03:02:04 18° 70° (ENE) 03:07:22 436.750
POPSAT HIP 1 30 Jan 03:00:16 03:02:20 13° 320° (NW) 03:04:19 437.405
AUBIESAT-1 30 Jan 03:01:51 03:05:33 55° 249° (WSW) 03:09:00 437.475
DUCHIFAT 1 30 Jan 03:02:27 03:04:24 13° 320° (NW) 03:06:18 145.980
Oscar 19 30 Jan 03:04:03 03:09:16 83° 106° (ESE) 03:14:27 437.125/150
AO-7 30 Jan 03:10:25 03:15:02 16° 73° (ENE) 03:19:58 29.400- 29.500
CUSAT 1 30 Jan 03:19:23 03:25:39 25° 78° (ENE) 03:31:49 437.405
ITAMSAT 1 30 Jan 03:22:05 03:27:15 54° 101° (E) 03:32:23 435.822/435.867
STRAND 1 30 Jan 03:22:51 03:24:43 12° 27° (NNE) 03:26:41 437.568
ISS 30 Jan 03:36:28 03:37:29 11° 203° (SSW) 03:38:27 145.825
STARS 30 Jan 03:51:50 03:55:40 27° 268° (W) 03:59:29 437.465
HORYU 2 30 Jan 03:54:18 03:58:14 30° 93° (E) 04:02:10 437.375
O/OREOS (USA 219) 30 Jan 03:57:27 03:59:01 11° 262° (W) 04:00:25 437.305
KKS-1 30 Jan 04:01:23 04:04:35 18° 274° (W) 04:07:43 437.445
YUBILEINY 30 Jan 04:01:33 04:08:19 24° 29° (NNE) 04:15:13 435.215
GONETS M04 30 Jan 04:02:20 04:10:51 51° 301° (WNW) 04:19:19
PCSat 30 Jan 04:05:33 04:07:36 12° 105° (ESE) 04:09:51 145.827
M-CUBED/EXP-1 PRIME 30 Jan 04:06:01 04:08:31 17° 263° (W) 04:10:52 437.505
JAS-2 30 Jan 04:06:35 04:09:35 15° 79° (E) 04:12:55 435.910
PRISM 30 Jan 04:06:55 04:09:33 17° 46° (NE) 04:12:15 437.425
RS-15 30 Jan 04:07:32 04:14:03 19° 97° (E) 04:21:06 29.354- 29.394
BEESAT 2 30 Jan 04:08:24 04:12:21 42° 134° (SE) 04:16:21 435.950
MOZHAYETS 4 30 Jan 04:08:29 04:13:02 63° 67° (ENE) 04:17:34
AIST 2 30 Jan 04:09:48 04:13:27 27° 127° (SE) 04:17:09 435.215
BEESAT 3 30 Jan 04:21:21 04:25:24 53° 139° (SE) 04:29:31 437.485
Gurwin Techsat 1B 30 Jan 04:24:52 04:30:14 82° 293° (WNW) 04:35:35 435.225
CUBESAT XI-V 30 Jan 04:28:15 04:31:36 20° 47° (NE) 04:35:00 437.345
DANDE 30 Jan 04:35:52 04:44:00 49° 92° (E) 04:51:53 436.750
Oscar 19 30 Jan 04:43:47 04:48:15 29° 310° (NW) 04:52:38 437.125/150
STRAND 1 30 Jan 04:58:13 05:02:32 29° 50° (NE) 05:06:56 437.568
CUSAT 1 30 Jan 04:59:18 05:07:41 66° 99° (E) 05:15:30 437.405
ITAMSAT 1 30 Jan 05:01:48 05:06:44 42° 303° (WNW) 05:11:38 435.822/435.867
AO-7 30 Jan 05:02:15 05:10:20 49° 100° (E) 05:18:22 29.400- 29.500
HORYU 2 30 Jan 05:30:49 05:35:14 59° 295° (WNW) 05:39:37 437.375
Cubesat XI-IV 30 Jan 05:34:33 05:36:38 12° 76° (ENE) 05:38:57 437.490
PRISM 30 Jan 05:40:22 05:44:27 65° 67° (ENE) 05:48:34 437.425
PCSat 30 Jan 05:44:44 05:49:51 44° 126° (SE) 05:55:01 145.827
BEESAT 2 30 Jan 05:46:16 05:50:28 71° 337° (NNW) 05:54:41 435.950
MOZHAYETS 4 30 Jan 05:46:38 05:50:39 29° 269° (W) 05:54:38
AIST 2 30 Jan 05:47:21 05:51:41 86° 150° (SSE) 05:56:03 435.215
JAS-2 30 Jan 05:50:36 05:55:59 58° 102° (ESE) 06:01:55 435.910
CUTE-I 30 Jan 05:53:29 05:56:44 16° 80° (E) 06:00:09 437.470
YUBILEINY 30 Jan 05:59:12 06:07:42 51° 59° (ENE) 06:16:16 435.215
BEESAT 3 30 Jan 05:59:25 06:03:35 62° 341° (NNW) 06:07:45 437.485
GONETS M04 30 Jan 06:03:22 06:10:13 24° 330° (NNW) 06:16:57
CUBESAT XI-V 30 Jan 06:03:49 06:08:26 72° 69° (ENE) 06:13:05 437.345
Gurwin Techsat 1B 30 Jan 06:05:18 06:09:40 26° 313° (NW) 06:13:59 435.225
RS-15 30 Jan 06:13:29 06:23:47 52° 124° (SE) 06:34:23 29.354- 29.394
DANDE 30 Jan 06:18:41 06:27:23 70° 294° (WNW) 06:35:36 436.750
Oscar 19 30 Jan 06:24:11 06:26:12 12° 333° (NNW) 06:28:08 437.125/150
STRAND 1 30 Jan 06:36:13 06:41:22 84° 254° (WSW) 06:46:33 437.568
ITAMSAT 1 30 Jan 06:42:01 06:45:09 16° 325° (NW) 06:48:12 435.822/435.867
CUSAT 1 30 Jan 06:42:47 06:51:06 53° 301° (WNW) 06:58:41 437.405
AO-7 30 Jan 06:55:19 07:03:37 69° 304° (NW) 07:11:51 29.400- 29.500
HORYU 2 30 Jan 07:08:14 07:11:11 17° 316° (NW) 07:14:04 437.375
Cubesat XI-IV 30 Jan 07:12:59 07:18:13 48° 99° (E) 07:23:26 437.490
PRISM 30 Jan 07:16:57 07:20:23 24° 268° (W) 07:23:46 437.425
BEESAT 2 30 Jan 07:25:00 07:29:07 49° 360° (N) 07:33:14 435.950
AIST 2 30 Jan 07:26:22 07:30:37 52° 351° (N) 07:34:52 435.215
PCSat 30 Jan 07:27:42 07:33:09 72° 329° (NNW) 07:38:37 145.827
CUTE-I 30 Jan 07:32:39 07:38:01 63° 103° (ESE) 07:43:22 437.470
BRITE-PL 30 Jan 07:35:18 07:36:43 11° 70° (ENE) 07:38:25 437.365/2234.400
JAS-2 30 Jan 07:36:04 07:41:07 41° 303° (WNW) 07:46:35 435.910
BEESAT 3 30 Jan 07:38:06 07:42:11 49° 4° (N) 07:46:17 437.485
UNISAT 6 30 Jan 07:39:31 07:41:20 12° 36° (NE) 07:43:14 437.425
HO-68 30 Jan 07:42:02 07:44:28 12° 70° (ENE) 07:47:15 435.675
CUBESAT XI-V 30 Jan 07:42:30 07:46:23 26° 271° (W) 07:50:15 437.345
Gurwin Techsat 1B 30 Jan 07:46:21 07:48:07 12° 336° (NNW) 07:49:48 435.225
YUBILEINY 30 Jan 07:56:21 08:05:00 65° 265° (W) 08:13:38 435.215
DANDE 30 Jan 08:04:38 08:12:17 32° 318° (NW) 08:19:18 436.750
GONETS M04 30 Jan 08:05:28 08:11:04 18° 3° (N) 08:16:40
ANTELSAT 30 Jan 08:13:56 08:16:58 18° 45° (NE) 08:20:04 437.575/2403.000
STRAND 1 30 Jan 08:17:30 08:21:23 21° 274° (W) 08:25:13 437.568
NANOSAT C BR1 30 Jan 08:18:29 08:20:26 13° 40° (NE) 08:22:29 145.865
TIGRISAT 30 Jan 08:20:44 08:23:57 19° 46° (NE) 08:27:12 435.000
RS-15 30 Jan 08:24:37 08:35:36 87° 333° (NNW) 08:46:59 29.354- 29.394
CUSAT 1 30 Jan 08:29:12 08:35:56 25° 325° (NW) 08:41:58 437.405
CANX-2 30 Jan 08:29:51 08:31:59 14° 81° (E) 08:34:14 2200.000
QB50P2 30 Jan 08:32:45 08:35:16 16° 44° (NE) 08:37:53 145.880/145.840
AAUSAT CUBESAT 2 30 Jan 08:38:45 08:39:11 10° 78° (ENE) 08:39:48 437.432
QB50P1 30 Jan 08:41:19 08:44:05 17° 46° (NE) 08:46:55 145.935-145.965
BUGSAT 1 30 Jan 08:47:05 08:49:32 16° 44° (NE) 08:52:06 437.445
CINEMA 3 30 Jan 08:47:27 08:48:46 11° 74° (ENE) 08:50:18 145.822/145.860
AO-7 30 Jan 08:48:08 08:55:23 34° 330° (NNW) 09:02:32 29.400- 29.500
Cubesat XI-IV 30 Jan 08:53:14 08:58:24 47° 301° (WNW) 09:03:33 437.490
CUTE 1.7 + AOD 2 30 Jan 08:53:17 08:56:19 19° 86° (E) 08:59:23 437.475
POLYITAN 1 30 Jan 08:56:21 08:59:34 21° 49° (NE) 09:02:49 437.675
GOMX 1 30 Jan 09:01:00 09:05:40 28° 87° (E) 09:10:17 467.674
BEESAT 2 30 Jan 09:03:33 09:07:46 70° 23° (NNE) 09:11:58 435.950
AIST 2 30 Jan 09:05:27 09:09:45 57° 15° (NNE) 09:14:01 435.215
DOVE 4 30 Jan 09:07:43 09:11:58 24° 85° (E) 09:16:09 437.250
BRITE-PL 30 Jan 09:11:32 09:16:57 41° 93° (E) 09:22:15 437.365/2234.400
PCSat 30 Jan 09:11:59 09:17:14 45° 354° (N) 09:22:29 145.827
UNISAT 6 30 Jan 09:12:48 09:17:03 35° 58° (ENE) 09:21:18 437.425
CUTE-I 30 Jan 09:13:00 09:17:57 38° 305° (NW) 09:22:53 437.470
POPSAT HIP 1 30 Jan 09:15:13 09:18:47 26° 53° (NE) 09:22:23 437.405
BEESAT 3 30 Jan 09:16:29 09:20:43 80° 27° (NNE) 09:24:54 437.485
DUCHIFAT 1 30 Jan 09:17:07 09:20:41 26° 54° (NE) 09:24:18 145.980
SEEDS 30 Jan 09:21:56 09:25:32 27° 91° (E) 09:29:09 437.485
JAS-2 30 Jan 09:22:02 09:25:09 16° 326° (NW) 09:28:19 435.910
HO-68 30 Jan 09:27:49 09:34:32 41° 95° (E) 09:41:16 435.675
UKube-1 30 Jan 09:36:08 09:37:34 12° 80° (E) 09:39:10 .
Oscar 19 30 Jan 09:39:39 09:40:37 11° 22° (NNE) 09:41:40 437.125/150
COMPASS 1 30 Jan 09:46:35 09:50:28 35° 96° (E) 09:54:20 437.405
ANTELSAT 30 Jan 09:48:25 09:53:03 58° 65° (ENE) 09:57:38 437.575/2403.000
CUBEBUG 2 30 Jan 09:50:01 09:53:22 19° 84° (E) 09:56:43 437.445
NANOSAT C BR1 30 Jan 09:51:20 09:55:24 42° 61° (ENE) 09:59:30 145.865
ZACube-1 30 Jan 09:52:30 09:55:08 15° 82° (E) 09:57:51 437.345
DANDE 30 Jan 09:52:42 09:58:27 19° 344° (NNW) 10:03:41 436.750
YUBILEINY 30 Jan 09:53:54 10:00:19 23° 290° (WNW) 10:06:31 435.215
TIGRISAT 30 Jan 09:55:22 10:00:02 64° 67° (ENE) 10:04:39 435.000
DX 1 30 Jan 09:57:26 10:00:20 17° 85° (E) 10:03:20 434.975-435.025
DELFI C3 30 Jan 10:00:17 10:03:27 22° 89° (E) 10:06:39 145.870
FUNcube-1 30 Jan 10:03:46 10:06:51 18° 84° (E) 10:09:58 145.935
CANX-2 30 Jan 10:04:35 10:08:51 66° 103° (ESE) 10:13:04 2200.000
GONETS M04 30 Jan 10:04:41 10:11:45 27° 35° (NE) 10:18:54
QB50P2 30 Jan 10:06:13 10:10:26 54° 65° (ENE) 10:14:41 145.880/145.840
AAUSAT CUBESAT 2 30 Jan 10:11:52 10:15:57 50° 100° (E) 10:20:01 437.432
QB50P1 30 Jan 10:15:03 10:19:18 62° 67° (ENE) 10:23:35 145.935-145.965
CUSAT 1 30 Jan 10:17:05 10:21:52 16° 351° (N) 10:26:10 437.405
BUGSAT 1 30 Jan 10:20:14 10:24:18 56° 66° (ENE) 10:28:28 437.445
CINEMA 3 30 Jan 10:22:34 10:27:23 47° 97° (E) 10:32:00 145.822/145.860
UWE-3 30 Jan 10:27:05 10:31:08 30° 92° (E) 10:35:06 435.000/436.395/437.385
AISAT 30 Jan 10:28:03 10:30:48 16° 83° (E) 10:33:39 437.250
CUTE 1.7 + AOD 2 30 Jan 10:28:36 10:32:53 87° 288° (WNW) 10:37:08 437.475
POLYITAN 1 30 Jan 10:30:38 10:34:59 80° 70° (ENE) 10:39:21 437.675
Cubesat XI-IV 30 Jan 10:33:58 10:37:30 18° 323° (NW) 10:40:57 437.490
Oscar 11 30 Jan 10:34:25 10:38:37 45° 99° (E) 10:42:47 145.826/435.025
ESTCUBE 1 30 Jan 10:36:30 10:37:08 10° 77° (ENE) 10:37:58 437.505/2401.250
RS-15 30 Jan 10:37:47 10:48:50 74° 4° (N) 11:00:21 29.354- 29.394
GOMX 1 30 Jan 10:38:51 10:44:25 81° 291° (WNW) 10:49:47 467.674
AO-7 30 Jan 10:39:47 10:46:07 25° 357° (N) 10:52:25 29.400- 29.500
BEESAT 2 30 Jan 10:41:54 10:45:55 43° 225° (SW) 10:49:53 435.950
AIST 2 30 Jan 10:44:12 10:48:31 67° 217° (SW) 10:52:47 435.215
DOVE 4 30 Jan 10:45:06 10:50:28 88° 279° (W) 10:55:37 437.250
50 SAT 30 Jan 10:45:32 10:48:23 18° 86° (E) 10:51:17 437.505
UNISAT 6 30 Jan 10:49:05 10:53:44 57° 258° (WSW) 10:58:21 437.425
AIST 1 30 Jan 10:49:35 10:52:01 15° 81° (E) 10:54:34
POPSAT HIP 1 30 Jan 10:50:02 10:54:21 76° 254° (WSW) 10:58:43 437.405
BRITE-PL 30 Jan 10:50:04 10:55:42 59° 296° (WNW) 11:01:14 437.365/2234.400
DUCHIFAT 1 30 Jan 10:51:55 10:56:14 74° 255° (WSW) 11:00:35 145.980
CUTE-I 30 Jan 10:53:47 10:56:51 15° 328° (NNW) 10:59:48 437.470
BEESAT 3 30 Jan 10:54:49 10:58:38 34° 229° (SW) 11:02:24 437.485
VELOX 1 30 Jan 10:55:09 10:58:46 24° 89° (E) 11:02:27 145.980
PCSat 30 Jan 10:56:10 11:01:31 53° 18° (NNE) 11:06:52 145.827
SEEDS 30 Jan 10:57:32 11:01:43 60° 293° (WNW) 11:05:51 437.485
CUBEBUG 1 30 Jan 11:00:09 11:02:37 15° 82° (E) 11:05:12 437.445
Gurwin Techsat 1B 30 Jan 11:01:40 11:03:45 12° 26° (NNE) 11:05:55 435.225
UKube-1 30 Jan 11:10:30 11:14:49 54° 102° (ESE) 11:19:07 .
Oscar 19 30 Jan 11:14:22 11:18:24 24° 46° (NE) 11:22:30 437.125/150
HO-68 30 Jan 11:15:39 11:22:48 71° 299° (WNW) 11:29:55 435.675
HUMSAT D 30 Jan 11:20:37 11:24:42 41° 97° (E) 11:28:43 437.325/437.525
COMPASS 1 30 Jan 11:22:19 11:26:20 45° 297° (WNW) 11:30:19 437.405
SO-50 30 Jan 11:22:39 11:26:34 27° 125° (SE) 11:30:39 436.795
ANTELSAT 30 Jan 11:25:53 11:30:09 32° 267° (W) 11:34:20 437.575/2403.000
CUBEBUG 2 30 Jan 11:26:06 11:30:51 86° 107° (ESE) 11:35:23 437.445
NANOSAT C BR1 30 Jan 11:27:16 11:31:21 40° 263° (W) 11:35:27 145.865
ZACube-1 30 Jan 11:27:54 11:32:26 71° 103° (ESE) 11:36:50 437.345
DX 1 30 Jan 11:32:54 11:37:21 80° 106° (ESE) 11:41:47 434.975-435.025
TIGRISAT 30 Jan 11:32:59 11:37:09 30° 268° (W) 11:41:14 435.000
ITAMSAT 1 30 Jan 11:34:16 11:37:44 19° 39° (NE) 11:41:17 435.822/435.867
DELFI C3 30 Jan 11:35:05 11:39:09 71° 291° (WNW) 11:43:12 145.870
FUNcube-1 30 Jan 11:39:25 11:43:59 84° 106° (ESE) 11:48:23 145.935
DANDE 30 Jan 11:39:59 11:45:12 18° 11° (N) 11:49:54 436.750
CANX-2 30 Jan 11:40:55 11:44:33 27° 304° (NW) 11:48:07 2200.000
QB50P2 30 Jan 11:42:44 11:46:37 31° 266° (W) 11:50:30 145.880/145.840
AAUSAT CUBESAT 2 30 Jan 11:47:45 11:51:32 33° 301° (WNW) 11:55:16 437.432
QB50P1 30 Jan 11:51:50 11:55:33 27° 268° (W) 11:59:16 145.935-145.965
BUGSAT 1 30 Jan 11:56:26 12:00:06 29° 267° (W) 12:03:48 437.445
CINEMA 3 30 Jan 11:59:54 12:04:38 44° 299° (WNW) 12:09:10 145.822/145.860
GONETS M04 30 Jan 12:02:10 12:10:48 60° 64° (ENE) 12:19:23
CUSAT 1 30 Jan 12:03:06 12:08:03 18° 19° (NNE) 12:12:29 437.405
UWE-3 30 Jan 12:03:28 12:08:02 59° 294° (WNW) 12:12:25 435.000/436.395/437.385
AISAT 30 Jan 12:03:45 12:08:18 72° 105° (ESE) 12:12:50 437.250
CUTE 1.7 + AOD 2 30 Jan 12:05:07 12:08:22 21° 309° (NW) 12:11:32 437.475
POLYITAN 1 30 Jan 12:08:06 12:11:29 21° 272° (W) 12:14:50 437.675
Oscar 11 30 Jan 12:10:46 12:14:48 38° 300° (WNW) 12:18:47 145.826/435.025
ESTCUBE 1 30 Jan 12:10:53 12:15:16 47° 99° (E) 12:19:40 437.505/2401.250
SPROUT 30 Jan 12:15:48 12:19:00 20° 87° (E) 12:22:15 437.525
GOMX 1 30 Jan 12:17:25 12:21:56 26° 312° (NW) 12:26:19 467.674
50 SAT 30 Jan 12:20:00 12:24:08 86° 289° (WNW) 12:28:11 437.505
BEESAT 2 30 Jan 12:21:45 12:23:15 12° 245° (WSW) 12:24:36 435.950
DOVE 4 30 Jan 12:23:15 12:27:42 27° 310° (NW) 12:32:00 437.250
AIST 2 30 Jan 12:23:23 12:26:33 20° 238° (WSW) 12:29:37 435.215
AIST 1 30 Jan 12:24:46 12:29:02 76° 102° (ESE) 12:33:21
POPSAT HIP 1 30 Jan 12:28:19 12:31:04 16° 276° (W) 12:33:42 437.405
BRITE-PL 30 Jan 12:29:05 12:33:19 22° 317° (NW) 12:37:27 437.365/2234.400
UNISAT 6 30 Jan 12:29:18 12:31:37 13° 281° (W) 12:33:44 437.425
AO-7 30 Jan 12:29:50 12:36:43 30° 24° (NNE) 12:43:40 29.400- 29.500
DUCHIFAT 1 30 Jan 12:30:15 12:32:55 15° 277° (W) 12:35:29 145.980
VELOX 1 30 Jan 12:31:22 12:35:53 76° 291° (WNW) 12:40:23 145.980
SEEDS 30 Jan 12:34:14 12:36:52 16° 314° (NW) 12:39:25 437.485
CUBEBUG 1 30 Jan 12:35:27 12:39:55 67° 104° (ESE) 12:44:22 437.445
Gurwin Techsat 1B 30 Jan 12:37:48 12:42:17 29° 50° (NE) 12:46:50 435.225
PCSat 30 Jan 12:39:49 12:45:17 76° 221° (SW) 12:50:43 145.827
UKube-1 30 Jan 12:46:54 12:50:52 34° 303° (WNW) 12:54:49 .
TISAT 1 30 Jan 12:47:54 12:51:47 31° 94° (E) 12:55:39 437.305
JAS-2 30 Jan 12:50:01 12:51:01 11° 20° (NNE) 12:52:07 435.910
RS-15 30 Jan 12:50:42 13:01:53 85° 214° (SW) 13:13:32 29.354- 29.394
Oscar 19 30 Jan 12:51:57 12:57:09 75° 68° (ENE) 13:02:22 437.125/150
HUMSAT D 30 Jan 12:56:30 13:00:33 41° 299° (WNW) 13:04:31 437.325/437.525
COMPASS 1 30 Jan 12:59:13 13:01:12 13° 318° (NW) 13:03:06 437.405
SO-50 30 Jan 13:01:55 13:06:39 80° 147° (SSE) 13:11:32 436.795
CUBEBUG 2 30 Jan 13:03:16 13:07:06 25° 309° (NW) 13:10:47 437.445
HO-68 30 Jan 13:03:37 13:09:41 31° 323° (NW) 13:15:40 435.675
ZACube-1 30 Jan 13:04:39 13:08:31 28° 306° (NW) 13:12:16 437.345
DX 1 30 Jan 13:09:36 13:13:15 25° 308° (NW) 13:16:51 434.975-435.025
DELFI C3 30 Jan 13:11:06 13:13:49 17° 311° (NW) 13:16:30 145.870
ITAMSAT 1 30 Jan 13:11:18 13:16:19 52° 61° (ENE) 13:21:25 435.822/435.867
FUNcube-1 30 Jan 13:16:14 13:19:55 24° 308° (NW) 13:23:27 145.935
DANDE 30 Jan 13:24:52 13:31:30 29° 38° (NE) 13:37:02 436.750
AAUSAT CUBESAT 2 30 Jan 13:25:26 13:26:09 10° 323° (NW) 13:26:46 437.432
HORYU 2 30 Jan 13:27:12 13:30:45 24° 50° (NE) 13:34:21 437.375
CINEMA 3 30 Jan 13:37:57 13:40:48 15° 322° (NW) 13:43:31 145.822/145.860
AISAT 30 Jan 13:40:45 13:44:39 28° 306° (NW) 13:48:29 437.250
UWE-3 30 Jan 13:40:46 13:43:49 18° 316° (NW) 13:46:45 435.000/436.395/437.385
CUSAT 1 30 Jan 13:46:58 13:53:35 35° 46° (NE) 13:58:51 437.405
ESTCUBE 1 30 Jan 13:47:55 13:52:09 39° 301° (WNW) 13:56:22 437.505/2401.250
Oscar 11 30 Jan 13:48:17 13:50:00 12° 321° (NW) 13:51:35 145.826/435.025
SWISSCUBE 30 Jan 13:51:14 13:55:21 28° 92° (E) 13:59:30 437.505
SPROUT 30 Jan 13:51:19 13:55:44 87° 289° (WNW) 14:00:06 437.525
50 SAT 30 Jan 13:55:43 13:58:47 20° 309° (NW) 14:01:45 437.505
GOMX 1 30 Jan 13:56:37 13:58:28 12° 334° (NNW) 14:00:13 467.674
GONETS M04 30 Jan 13:59:21 14:07:44 54° 270° (W) 14:16:02
DOVE 4 30 Jan 14:02:13 14:03:58 12° 333° (NNW) 14:05:36 437.250
AIST 1 30 Jan 14:03:45 14:07:14 23° 305° (NW) 14:10:43
KKS-1 30 Jan 14:05:46 14:06:56 11° 78° (ENE) 14:08:18 437.445
BEESAT 30 Jan 14:06:40 14:11:01 33° 94° (E) 14:15:22 436.000
VELOX 1 30 Jan 14:08:33 14:11:55 21° 312° (NW) 14:15:14 145.980
BRITE-PL 30 Jan 14:08:53 14:10:00 11° 341° (NNW) 14:11:02 437.365/2234.400
ITUPSAT 1 30 Jan 14:11:28 14:15:52 35° 95° (E) 14:20:18 437.325
CUTE-I 30 Jan 14:11:48 14:12:46 10° 18° (NNE) 14:13:48 437.470
CUBEBUG 1 30 Jan 14:12:11 14:16:02 29° 305° (NW) 14:19:52 437.445
Gurwin Techsat 1B 30 Jan 14:16:30 14:21:51 87° 249° (WSW) 14:27:14 435.225
AO-7 30 Jan 14:20:06 14:28:11 57° 50° (NE) 14:36:19 29.400- 29.500
TISAT 1 30 Jan 14:23:38 14:27:51 53° 295° (WNW) 14:32:03 437.305
PCSat 30 Jan 14:23:42 14:28:05 25° 244° (WSW) 14:32:22 145.827
UKube-1 30 Jan 14:24:29 14:25:59 11° 325° (NW) 14:27:23 .
JAS-2 30 Jan 14:30:26 14:34:29 24° 45° (NE) 14:38:39 435.910
Oscar 19 30 Jan 14:32:32 14:37:03 28° 270° (W) 14:41:30 437.125/150
HUMSAT D 30 Jan 14:33:32 14:35:24 13° 320° (NW) 14:37:11 437.325/437.525
SO-50 30 Jan 14:42:44 14:47:28 59° 350° (N) 14:52:21 436.795
HO-68 30 Jan 14:50:51 14:55:30 19° 349° (N) 15:00:07 435.675
ITAMSAT 1 30 Jan 14:51:06 14:56:02 42° 263° (W) 15:00:59 435.822/435.867
HORYU 2 30 Jan 15:02:28 15:06:59 90° 194° (SSW) 15:11:32 437.375
RS-15 30 Jan 15:03:04 15:13:21 43° 242° (WSW) 15:23:55 29.354- 29.394
DANDE 30 Jan 15:08:47 15:16:29 72° 66° (ENE) 15:22:20 436.750
AISAT 30 Jan 15:19:22 15:20:03 10° 328° (NNW) 15:20:37 437.250
ESTCUBE 1 30 Jan 15:25:56 15:28:03 13° 322° (NW) 15:30:05 437.505/2401.250
SPROUT 30 Jan 15:27:58 15:31:22 22° 309° (NW) 15:34:42 437.525
Cubesat XI-IV 30 Jan 15:28:18 15:31:50 18° 37° (NE) 15:35:27 437.490
SWISSCUBE 30 Jan 15:28:53 15:33:40 69° 294° (WNW) 15:38:27 437.505
CUSAT 1 30 Jan 15:30:21 15:37:33 84° 255° (WSW) 15:42:56 437.405
STARS 30 Jan 15:30:43 15:34:45 32° 94° (E) 15:38:47 437.465
KKS-1 30 Jan 15:40:22 15:44:47 50° 100° (E) 15:49:10 437.445
BEESAT 30 Jan 15:44:27 15:49:10 58° 296° (WNW) 15:53:52 436.000
CUTE-I 30 Jan 15:47:12 15:51:08 22° 42° (NE) 15:55:09 437.470
ITUPSAT 1 30 Jan 15:49:19 15:54:01 55° 297° (WNW) 15:58:43 437.325
CUBEBUG 1 30 Jan 15:50:43 15:51:14 10° 327° (NNW) 15:51:39 437.445
GONETS M04 30 Jan 15:57:10 16:02:43 18° 295° (WNW) 16:07:58
Gurwin Techsat 1B 30 Jan 15:58:27 16:02:39 23° 274° (W) 16:06:46 435.225
TISAT 1 30 Jan 16:00:21 16:02:55 15° 316° (NW) 16:05:24 437.305
AUBIESAT-1 30 Jan 16:08:57 16:11:11 17° 98° (E) 16:13:29 437.475
AO-7 30 Jan 16:12:45 16:21:04 63° 254° (WSW) 16:29:24 29.400- 29.500
JAS-2 30 Jan 16:13:49 16:19:05 80° 69° (ENE) 16:24:20 435.910
SO-50 30 Jan 16:23:44 16:28:33 63° 15° (NNE) 16:33:27 436.795
HO-68 30 Jan 16:36:09 16:40:56 20° 16° (NNE) 16:45:46 435.675
ITAMSAT 1 30 Jan 16:36:43 16:37:08 10° 286° (WNW) 16:37:18 435.822/435.867
O/OREOS (USA 219) 30 Jan 16:38:51 16:42:30 25° 109° (ESE) 16:46:16 437.305
HORYU 2 30 Jan 16:40:59 16:44:20 20° 273° (W) 16:47:37 437.375
